[[{"header":{"parameterUnit":"m.s-1","parameterCategory":1,"la1":30.2991,"la2":30.254,"lo1":-89.0895,"lo2":-89.0444,"dy":0.0017,"dx":0.0017,"nx":28,"ny":28,"refTime":"2025-03-05T03:00:00:Z","depth":0,"parameterNumber":2,"parameterNumberName":"U-component_of_WINDS"},"data":[0,0,0,0,0,0,0,0,0,0,0,0,0,0,0,0,0,0,0,0,0,0,0,0,0,0,0,0,0,0,0,0,0,0,0,0,0,0,0,0,0,0,0,0,0,0,0,0,0,0,0,0,0,0,0,0,0,0,10.7813,10.7815,0,10.802,10.8023,10.8025,10.7878,10.7871,10.7865,10.7858,10.8075,10.8087,10.8099,0,0,0,0,0,0,0,0,0,0,0,0,0,10.7295,10.7305,10.7813,10.7816,10.7818,10.802,10.8023,10.8026,10.7879,10.7871,10.7863,10.7855,10.8071,10.8085,10.81,0,0,0,0,0,0,0,0,0,0,0,0,0,10.7513,10.7309,10.7812,10.7769,10.7767,10.8019,10.8023,10.8026,10.7881,10.7871,10.7861,10.7852,10.8067,10.8084,10.8102,10.8409,0,0,10.8156,10.8164,0,0,0,0,0,0,0,0,10.7501,10.7532,10.7773,10.7773,10.7771,10.7913,10.7919,10.8155,10.7883,10.7838,10.7858,10.7847,10.803,10.805,10.8111,10.8419,10.8429,10.8158,10.8169,10.8176,10.8181,0,0,0,0,0,0,0,10.7486,10.7523,10.7895,10.7777,10.7776,10.7741,10.7761,10.7963,10.7987,10.7841,10.7831,10.7857,10.8027,10.8094,10.8115,10.8432,10.8157,10.8173,10.8184,10.8191,10.9005,10.9015,0,0,0,0,0,0,10.7474,10.7511,10.7888,10.7901,10.7609,10.7758,10.7781,10.7877,10.7984,10.7991,10.7865,10.7849,10.8068,10.8094,10.8122,10.8489,10.8176,10.8193,10.8203,10.8994,10.9007,10.9019,0,0,0,0,0,0,10.7464,10.7509,10.788,10.7704,10.7748,10.7778,10.7888,10.7887,10.7953,10.8002,10.8006,10.7929,10.8061,10.8097,10.8339,10.8495,10.8201,10.8217,10.8981,10.8998,10.9013,10.9227,0,0,0,0,0,0,10.7449,10.7506,10.7622,10.7707,10.7758,10.8093,10.7897,10.7898,10.7984,10.7965,10.8063,10.807,10.8056,10.8313,10.8357,10.8514,10.8231,10.8967,10.8989,10.9008,10.9206,10.9249,10.9285,0,0,0,0,0,10.7432,10.7675,10.7629,10.7675,10.7903,10.8102,10.8131,10.811,10.7997,10.8114,10.8146,10.8066,10.8471,10.8339,10.8387,10.8552,10.8957,10.8983,10.9006,10.9189,10.9241,10.9284,0,0,0,0,0,0,10.7609,10.7685,10.7635,10.7913,10.8002,10.8077,10.8224,10.8165,10.8289,10.8267,10.8236,10.826,10.8514,10.8557,10.8409,10.8856,10.8696,10.8732,10.8819,10.8868,10.8907,10.8892,10.8246,0,0,0,0,0,10.768,10.7834,10.7893,10.8133,10.818,10.8195,10.8281,10.8256,10.8348,10.8386,10.8435,10.8528,10.8676,10.8774,10.8913,10.9212,10.9232,10.9349,10.9389,10.9421,10.9452,10.9614,10.9668,10.91,10.9099,10.9099,0,0,10.783,10.789,10.7989,10.817,10.8236,10.8397,10.8228,10.8405,10.8525,10.8413,10.8644,10.8685,10.8787,10.9059,10.9181,10.9103,10.9613,10.9452,10.9477,10.9491,10.9645,10.9699,10.9747,10.9116,10.9113,10.9111,0,0,10.8184,10.8245,10.8452,10.8522,10.8623,10.8632,10.8682,10.8767,10.8788,10.902,10.8939,10.9082,10.9338,10.9414,10.9487,10.9872,10.9804,10.9918,11.0125,11.0283,11.0328,11.0367,11.0506,11.0556,10.9949,10.995,10.995,0,10.8357,10.8596,10.8566,10.875,10.8833,10.8737,10.8947,10.9017,10.916,10.922,10.913,10.9449,10.9511,10.98,10.9894,10.9956,11.0013,10.9907,11.0323,11.0363,11.0399,11.0531,11.0583,10.9963,10.9961,10.996,10.9959,0,10.8804,10.8971,10.9126,10.9265,10.9365,10.9562,10.9564,10.9669,10.9636,10.9655,10.9894,10.9965,11.0117,11.0183,11.0154,11.047,11.0418,11.0327,11.0165,11.0467,11.059,11.0641,10.9982,10.9977,10.9973,10.997,0,0,10.9276,10.9397,10.9454,10.9517,10.9623,10.9752,10.9945,11.0093,11.0184,11.0286,11.0448,11.0667,11.0583,11.0666,11.0644,11.0783,11.1085,11.0675,11.0677,11.0749,11.1439,11.1507,11.1566,11.104,11.105,11.1058,11.143,0,10.9637,10.9971,10.9951,11.0266,11.0421,11.0333,11.0501,11.0586,11.0609,11.0745,11.0771,11.0927,11.0804,11.0853,11.0987,11.102,11.1224,11.0993,11.1193,11.12,11.117,11.163,11.1703,11.2052,11.1478,11.1487,11.1492,0,11.0102,11.022,11.055,11.0634,11.0698,11.085,11.0984,11.1114,11.1209,11.1216,11.1309,11.1264,11.1461,11.1295,11.1566,11.141,11.1491,11.152,11.1533,11.1551,11.1365,11.1662,11.2162,11.2215,11.1568,11.1562,11.1556,0,11.0415,11.0656,11.0885,11.0941,11.1044,11.1153,11.1201,11.1285,11.1376,11.1494,11.1552,11.1692,11.1769,11.1879,11.1874,11.1754,11.2151,11.1984,11.2163,11.2164,11.2251,11.2246,11.2772,11.2303,11.2302,11.2301,11.23,0,11.0821,11.1027,11.1026,11.1168,11.1396,11.1371,11.1599,11.1636,11.1712,11.186,11.1793,11.1933,11.1918,11.206,11.2058,11.2284,11.2319,11.2332,11.2329,11.2338,11.2337,11.2391,11.2366,11.2315,11.2312,11.2309,11.2307,0,11.1209,11.1216,11.146,11.1538,11.1562,11.1728,11.1794,11.1929,11.1946,11.2134,11.2177,11.2205,11.2369,11.2375,11.2564,11.2562,11.2838,11.2808,11.2806,11.28,11.2979,11.2963,11.3559,11.3637,11.3117,11.3122,11.3126,0,11.1467,11.1623,11.1717,11.1811,11.1865,11.2017,11.2109,11.2091,11.2189,11.2309,11.243,11.2587,11.2712,11.2978,11.3017,11.3161,11.3134,11.3333,11.3155,11.316,11.3138,11.3129,11.3144,11.3368,11.3374,11.3378,11.3382,0,11.1926,11.1922,11.2055,11.2192,11.2303,11.241,11.2508,11.2589,11.2583,11.2698,11.2863,11.296,11.3153,11.331,11.345,11.3501,11.3443,11.3438,11.3487,11.3498,11.3491,11.3498,11.2901,11.3424,11.342,11.3417,11.3415,11.3413,11.2257,11.2392,11.248,11.2631,11.2704,11.2798,11.2928,11.2961,11.3099,11.3253,11.3235,11.342,11.3511,11.3693,11.3756,11.3901,11.3833,11.3904,11.3922,11.3941,11.396,11.3468,11.3927,11.3926,11.3925,11.3924,11.3923,0,11.2713,11.2764,11.2904,11.3044,11.3164,11.3096,11.3202,11.3308,11.3471,11.356,11.3684,11.3876,11.4028,11.4079,11.4227,11.4334,11.4311,11.4373,11.4366,11.4378,11.4012,11.3955,11.439,11.439,11.439,11.4389,11.4389,11.4389,11.2964,11.3189,11.3196,11.3457,11.3507,11.3687,11.3754,11.3841,11.3912,11.4128,11.4254,11.4285,11.436,11.4513,11.465,11.4661,11.4719,11.4794,11.4794,11.4451,11.4404,11.4359,11.4305,11.4807,11.4807,11.5147,11.5151,11.5153]},{"header":{"parameterUnit":"m.s-1","parameterCategory":1,"la1":30.2991,"la2":30.254,"lo1":-89.0895,"lo2":-89.0444,"dy":0.0017,"dx":0.0017,"nx":28,"ny":28,"refTime":"2025-03-05T03:00:00:Z","depth":0,"parameterNumber":3,"parameterNumberName":"V-component_of_WINDS"},"data":[0,0,0,0,0,0,0,0,0,0,0,0,0,0,0,0,0,0,0,0,0,0,0,0,0,0,0,0,0,0,0,0,0,0,0,0,0,0,0,0,0,0,0,0,0,0,0,0,0,0,0,0,0,0,0,0,0,0,0.5688,0.5689,0,0.5799,0.58,0.5802,0.5824,0.5823,0.5822,0.5821,0.5937,0.594,0.5944,0,0,0,0,0,0,0,0,0,0,0,0,0,0.5495,0.5498,0.5688,0.5689,0.5691,0.5799,0.58,0.5802,0.5824,0.5823,0.5822,0.5821,0.5935,0.594,0.5944,0,0,0,0,0,0,0,0,0,0,0,0,0,0.559,0.5499,0.5687,0.5714,0.5718,0.5799,0.58,0.5802,0.5824,0.5823,0.5821,0.582,0.5934,0.5939,0.5945,0.6007,0,0,0.5963,0.5965,0,0,0,0,0,0,0,0,0.5584,0.5597,0.5709,0.5713,0.5717,0.5796,0.5775,0.5871,0.5824,0.5784,0.5821,0.5819,0.5891,0.59,0.5924,0.6013,0.6018,0.5963,0.5967,0.5969,0.5971,0,0,0,0,0,0,0,0.5578,0.5592,0.5732,0.5711,0.5715,0.5721,0.5733,0.5793,0.5843,0.5787,0.5789,0.5802,0.5893,0.5918,0.5927,0.6019,0.5963,0.5968,0.5972,0.5974,0.6164,0.6166,0,0,0,0,0,0,0.5566,0.5586,0.5728,0.5735,0.5646,0.5726,0.5739,0.5772,0.5843,0.5852,0.5803,0.5802,0.5909,0.592,0.5931,0.6009,0.5969,0.5975,0.5978,0.6163,0.6164,0.6166,0,0,0,0,0,0,0.5562,0.5579,0.5724,0.5661,0.568,0.573,0.5767,0.5775,0.58,0.5855,0.5864,0.582,0.5908,0.5923,0.5988,0.6013,0.5978,0.5983,0.6161,0.6163,0.6165,0.6164,0,0,0,0,0,0,0.5556,0.5577,0.5601,0.5662,0.5684,0.5779,0.5769,0.5778,0.581,0.5811,0.5873,0.5882,0.5908,0.5979,0.5994,0.602,0.5987,0.6159,0.6162,0.6165,0.6162,0.6166,0.6169,0,0,0,0,0,0.5549,0.5597,0.5602,0.5619,0.5715,0.578,0.5793,0.5822,0.5812,0.5837,0.5871,0.588,0.6007,0.5986,0.6002,0.6031,0.6157,0.6161,0.6164,0.616,0.6165,0.6169,0,0,0,0,0,0,0.5538,0.5605,0.5612,0.568,0.5724,0.5784,0.5816,0.5826,0.5874,0.5873,0.5907,0.5921,0.5984,0.6014,0.5989,0.6094,0.6082,0.6089,0.6073,0.6078,0.6082,0.6074,0.5992,0,0,0,0,0,0.5543,0.5591,0.5647,0.5701,0.5723,0.5765,0.5795,0.5814,0.5861,0.588,0.5919,0.5965,0.6016,0.6048,0.6098,0.6166,0.618,0.6194,0.6197,0.62,0.6206,0.6244,0.6251,0.6178,0.6178,0.6177,0,0,0.5555,0.5598,0.5626,0.57,0.5737,0.5785,0.5781,0.5833,0.5869,0.5888,0.5952,0.5982,0.6036,0.6102,0.6134,0.6129,0.6229,0.6204,0.6206,0.6211,0.6248,0.6255,0.6261,0.618,0.618,0.6179,0,0,0.5602,0.5638,0.5688,0.5724,0.5779,0.5807,0.5818,0.5876,0.5897,0.5961,0.5976,0.602,0.6106,0.6144,0.6174,0.6233,0.6243,0.6248,0.6268,0.6305,0.631,0.6316,0.6337,0.6344,0.6254,0.6254,0.6254,0,0.561,0.5683,0.5712,0.5763,0.5796,0.5814,0.5864,0.5898,0.5967,0.5989,0.5982,0.609,0.6127,0.6203,0.6217,0.6241,0.6256,0.6242,0.6307,0.6313,0.6318,0.6339,0.6347,0.6254,0.6254,0.6254,0.6254,0,0.569,0.5741,0.5774,0.5839,0.5875,0.5926,0.5963,0.5996,0.6011,0.6039,0.6104,0.6149,0.6208,0.6227,0.6243,0.6305,0.6301,0.63,0.6288,0.6325,0.6345,0.6353,0.6255,0.6255,0.6254,0.6254,0,0,0.5734,0.5814,0.5826,0.5855,0.5916,0.5956,0.6007,0.6064,0.6092,0.6138,0.6182,0.6254,0.6253,0.6287,0.6307,0.6339,0.6384,0.6335,0.6337,0.6343,0.6455,0.6456,0.6465,0.639,0.6391,0.6393,0.6451,0,0.5789,0.588,0.5907,0.5985,0.6032,0.6049,0.6094,0.6136,0.6164,0.6208,0.6238,0.6289,0.6284,0.6305,0.6337,0.6371,0.6407,0.6367,0.6432,0.6434,0.6419,0.6476,0.6477,0.653,0.6459,0.6461,0.6462,0,0.5865,0.5911,0.5993,0.6048,0.6069,0.6108,0.6162,0.6204,0.6252,0.627,0.6308,0.6324,0.6378,0.6362,0.6438,0.641,0.6438,0.6458,0.6461,0.6469,0.645,0.6486,0.6547,0.6555,0.6474,0.6473,0.6472,0,0.5889,0.5972,0.6032,0.6057,0.6122,0.6149,0.6178,0.6225,0.6257,0.6304,0.6325,0.6378,0.6407,0.6448,0.6478,0.6464,0.6551,0.6538,0.6568,0.6567,0.6586,0.6585,0.6654,0.6602,0.6602,0.6602,0.6602,0,0.5947,0.5997,0.6044,0.6081,0.6136,0.6167,0.6221,0.6251,0.6292,0.6335,0.6353,0.6393,0.643,0.6475,0.6499,0.6558,0.6571,0.6587,0.6593,0.6586,0.6584,0.6605,0.6602,0.6604,0.6604,0.6603,0.6603,0,0.5984,0.6018,0.6084,0.614,0.6155,0.6194,0.6242,0.6278,0.6306,0.636,0.6374,0.6418,0.6472,0.6506,0.6574,0.659,0.6655,0.6659,0.6638,0.6641,0.6669,0.6667,0.6755,0.6769,0.6708,0.6708,0.6709,0,0.602,0.6058,0.6118,0.6148,0.6176,0.6224,0.6257,0.6288,0.6322,0.6379,0.6408,0.6463,0.6509,0.6593,0.6631,0.6684,0.669,0.6717,0.6698,0.6689,0.6691,0.6689,0.6693,0.6721,0.6721,0.6722,0.6722,0,0.6079,0.6094,0.614,0.6192,0.6231,0.6273,0.6316,0.6339,0.6378,0.6414,0.6469,0.6504,0.6574,0.6628,0.6683,0.6713,0.6724,0.6728,0.6738,0.6731,0.6718,0.6726,0.6648,0.6726,0.6725,0.6725,0.6725,0.6725,0.6117,0.6152,0.6199,0.625,0.6285,0.6325,0.6362,0.6393,0.644,0.6498,0.6514,0.6571,0.6618,0.6693,0.6724,0.6769,0.6766,0.678,0.6784,0.6787,0.6787,0.6709,0.6779,0.6779,0.6779,0.6779,0.6779,0,0.6178,0.6209,0.6255,0.6314,0.6354,0.636,0.6408,0.6441,0.6491,0.6534,0.6578,0.664,0.6693,0.6734,0.6788,0.6816,0.6823,0.6829,0.6828,0.6835,0.6787,0.6774,0.6823,0.6823,0.6823,0.6823,0.6823,0.6823,0.6214,0.6273,0.6293,0.637,0.6401,0.6457,0.6484,0.652,0.6554,0.6623,0.6666,0.6693,0.6735,0.6792,0.684,0.6851,0.687,0.6876,0.6888,0.6843,0.6838,0.6834,0.6821,0.688,0.688,0.6932,0.6932,0.6932]}]]